| time (UTC) | temp C | wind direction | speed KPH | gust KPH | rain 1hr cm | rain 24hr cm | rain mn cm | humidity % | barometer mb |
| 20260504050004 | 19 | 184 | 3.2 | 9.7 | 0.00 | 0.00 | 0.00 | 64 | 1016.0 |
| 20260504045503 | 19 | 183 | 3.2 | 11.3 | 0.00 | 0.00 | 0.00 | 64 | 1016.0 |
| 20260504045004 | 19 | 182 | 3.2 | 11.3 | 0.00 | 0.00 | 0.00 | 64 | 1016.1 |
| 20260504044504 | 19 | 182 | 3.2 | 8.0 | 0.00 | 0.00 | 0.00 | 63 | 1016.1 |
| 20260504044002 | 20 | 188 | 3.2 | 11.3 | 0.00 | 0.00 | 0.00 | 63 | 1016.1 |
| 20260504043502 | 20 | 193 | 4.8 | 11.3 | 0.00 | 0.00 | 0.00 | 63 | 1016.1 |
| 20260504043002 | 20 | 192 | 3.2 | 8.0 | 0.00 | 0.00 | 0.00 | 63 | 1016.1 |
| 20260504042502 | 20 | 191 | 3.2 | 9.7 | 0.00 | 0.00 | 0.00 | 62 | 1016.1 |
| 20260504042002 | 20 | 189 | 4.8 | 11.3 | 0.00 | 0.00 | 0.00 | 62 | 1016.1 |
| 20260504041002 | 20 | 185 | 3.2 | 9.7 | 0.00 | 0.00 | 0.00 | 62 | 1016.1 |
| 20260504040002 | 20 | 183 | 3.2 | 11.3 | 0.00 | 0.00 | 0.00 | 61 | 1016.1 |
| 20260504035502 | 20 | 183 | 3.2 | 11.3 | 0.00 | 0.00 | 0.00 | 61 | 1016.1 |
| 20260504035002 | 20 | 191 | 3.2 | 11.3 | 0.00 | 0.00 | 0.00 | 61 | 1016.1 |
| 20260504034503 | 20 | 192 | 3.2 | 11.3 | 0.00 | 0.00 | 0.00 | 61 | 1016.2 |
| 20260504034002 | 20 | 185 | 3.2 | 9.7 | 0.00 | 0.00 | 0.00 | 61 | 1016.1 |
| 20260504032502 | 20 | 186 | 3.2 | 9.7 | 0.00 | 0.00 | 0.00 | 60 | 1016.0 |
| 20260504032003 | 20 | 184 | 3.2 | 6.4 | 0.00 | 0.00 | 0.00 | 60 | 1016.1 |
| 20260504031502 | 20 | 185 | 1.6 | 6.4 | 0.00 | 0.00 | 0.00 | 60 | 1016.0 |
| 20260504031002 | 20 | 188 | 1.6 | 6.4 | 0.00 | 0.00 | 0.00 | 59 | 1016.0 |
| 20260504030002 | 21 | 184 | 3.2 | 9.7 | 0.00 | 0.00 | 0.00 | 58 | 1015.8 |
| 20260504025002 | 21 | 181 | 3.2 | 9.7 | 0.00 | 0.00 | 0.00 | 58 | 1015.9 |
| 20260504024502 | 21 | 185 | 3.2 | 8.0 | 0.00 | 0.00 | 0.00 | 58 | 1015.9 |
| 20260504024002 | 21 | 189 | 3.2 | 9.7 | 0.00 | 0.00 | 0.00 | 57 | 1015.9 |
| 20260504023002 | 21 | 186 | 3.2 | 8.0 | 0.00 | 0.00 | 0.00 | 56 | 1016.0 |
| 20260504022502 | 21 | 182 | 3.2 | 8.0 | 0.00 | 0.00 | 0.00 | 56 | 1016.0 |
| 20260504022003 | 21 | 177 | 3.2 | 8.0 | 0.00 | 0.00 | 0.00 | 56 | 1015.9 |
| 20260504021502 | 22 | 178 | 3.2 | 8.0 | 0.00 | 0.00 | 0.00 | 56 | 1015.9 |
| 20260504021002 | 22 | 190 | 3.2 | 9.7 | 0.00 | 0.00 | 0.00 | 55 | 1015.8 |
| 20260504020503 | 22 | 202 | 3.2 | 9.7 | 0.00 | 0.00 | 0.00 | 55 | 1015.8 |
| 20260504020002 | 22 | 192 | 3.2 | 8.0 | 0.00 | 0.00 | 0.00 | 55 | 1015.8 |
| 20260504015502 | 22 | 176 | 3.2 | 8.0 | 0.00 | 0.00 | 0.00 | 54 | 1015.7 |
| 20260504015002 | 22 | 184 | 3.2 | 9.7 | 0.00 | 0.00 | 0.00 | 54 | 1015.7 |
| 20260504014502 | 22 | 190 | 1.6 | 9.7 | 0.00 | 0.00 | 0.00 | 53 | 1015.8 |
| 20260504014002 | 22 | 189 | 1.6 | 4.8 | 0.00 | 0.00 | 0.00 | 53 | 1015.7 |
| 20260504013502 | 23 | 187 | 1.6 | 8.0 | 0.00 | 0.00 | 0.00 | 52 | 1015.7 |
| 20260504013002 | 23 | 185 | 3.2 | 8.0 | 0.00 | 0.00 | 0.00 | 51 | 1015.7 |
| 20260504012502 | 23 | 187 | 3.2 | 8.0 | 0.00 | 0.00 | 0.00 | 51 | 1015.7 |
| 20260504012002 | 23 | 188 | 3.2 | 8.0 | 0.00 | 0.00 | 0.00 | 50 | 1015.7 |
| 20260504011002 | 23 | 189 | 3.2 | 9.7 | 0.00 | 0.00 | 0.00 | 48 | 1015.6 |
| 20260504010502 | 24 | 190 | 3.2 | 11.3 | 0.00 | 0.00 | 0.00 | 48 | 1015.5 |
| 20260504010002 | 24 | 186 | 4.8 | 11.3 | 0.00 | 0.00 | 0.00 | 47 | 1015.5 |
| 20260504005002 | 24 | 192 | 4.8 | 16.1 | 0.00 | 0.00 | 0.00 | 45 | 1015.6 |
| 20260504004502 | 25 | 194 | 3.2 | 14.5 | 0.00 | 0.00 | 0.00 | 45 | 1015.5 |
| 20260504004003 | 25 | 185 | 3.2 | 14.5 | 0.00 | 0.00 | 0.00 | 44 | 1015.5 |
| 20260504003502 | 25 | 188 | 6.4 | 17.7 | 0.00 | 0.00 | 0.00 | 43 | 1015.5 |
| 20260504003003 | 26 | 193 | 6.4 | 17.7 | 0.00 | 0.00 | 0.00 | 42 | 1015.5 |
| 20260504002503 | 26 | 199 | 6.4 | 12.9 | 0.00 | 0.00 | 0.00 | 42 | 1015.5 |
| 20260504001502 | 26 | 189 | 6.4 | 12.9 | 0.00 | 0.00 | 0.00 | 42 | 1015.7 |
| 20260504001002 | 26 | 192 | 6.4 | 19.3 | 0.00 | 0.00 | 0.00 | 42 | 1015.7 |
| 20260504000503 | 26 | 188 | 8.0 | 19.3 | 0.00 | 0.00 | 0.00 | 41 | 1015.7 |
| 20260504000003 | 26 | 187 | 8.0 | 19.3 | 0.00 | 0.00 | 0.00 | 41 | 1015.7 |
| 20260503235502 | 26 | 188 | 9.7 | 19.3 | 0.00 | 0.00 | 0.00 | 41 | 1015.7 |
| 20260503235003 | 26 | 187 | 8.0 | 22.5 | 0.00 | 0.00 | 0.00 | 42 | 1015.7 |
| 20260503234002 | 27 | 190 | 8.0 | 25.7 | 0.00 | 0.00 | 0.00 | 41 | 1015.8 |
| 20260503233503 | 26 | 192 | 8.0 | 25.7 | 0.00 | 0.00 | 0.00 | 40 | 1015.9 |
| 20260503233003 | 27 | 192 | 6.4 | 25.7 | 0.00 | 0.00 | 0.00 | 40 | 1015.9 |
| 20260503232502 | 27 | 185 | 6.4 | 17.7 | 0.00 | 0.00 | 0.00 | 41 | 1015.9 |
| 20260503232002 | 27 | 179 | 6.4 | 17.7 | 0.00 | 0.00 | 0.00 | 41 | 1016.0 |
| 20260503231503 | 27 | 178 | 6.4 | 20.9 | 0.00 | 0.00 | 0.00 | 41 | 1015.9 |
| 20260503231002 | 27 | 189 | 8.0 | 20.9 | 0.00 | 0.00 | 0.00 | 39 | 1015.9 |
| 20260503230503 | 27 | 190 | 8.0 | 20.9 | 0.00 | 0.00 | 0.00 | 41 | 1015.9 |
| 20260503230002 | 27 | 173 | 6.4 | 20.9 | 0.00 | 0.00 | 0.00 | 40 | 1016.0 |
| 20260503225503 | 27 | 176 | 8.0 | 17.7 | 0.00 | 0.00 | 0.00 | 41 | 1015.9 |
| 20260503225002 | 27 | 193 | 8.0 | 20.9 | 0.00 | 0.00 | 0.00 | 41 | 1016.0 |
| 20260503224503 | 27 | 192 | 8.0 | 20.9 | 0.00 | 0.00 | 0.00 | 41 | 1016.1 |
| 20260503224002 | 27 | 187 | 8.0 | 20.9 | 0.00 | 0.00 | 0.00 | 41 | 1016.0 |
| 20260503223503 | 27 | 197 | 8.0 | 17.7 | 0.00 | 0.00 | 0.00 | 41 | 1016.1 |
| 20260503223003 | 28 | 204 | 6.4 | 14.5 | 0.00 | 0.00 | 0.00 | 40 | 1016.1 |
| 20260503222502 | 28 | 188 | 6.4 | 14.5 | 0.00 | 0.00 | 0.00 | 39 | 1016.1 |
| 20260503221503 | 28 | 214 | 3.2 | 14.5 | 0.00 | 0.00 | 0.00 | 39 | 1016.4 |
| 20260503221003 | 28 | 208 | 4.8 | 16.1 | 0.00 | 0.00 | 0.00 | 38 | 1016.3 |
| 20260503220003 | 28 | 235 | 6.4 | 17.7 | 0.00 | 0.00 | 0.00 | 40 | 1016.5 |
| 20260503215503 | 28 | 226 | 6.4 | 19.3 | 0.00 | 0.00 | 0.00 | 39 | 1016.4 |
| 20260503215002 | 28 | 198 | 6.4 | 19.3 | 0.00 | 0.00 | 0.00 | 38 | 1016.6 |
| 20260503214503 | 28 | 195 | 6.4 | 17.7 | 0.00 | 0.00 | 0.00 | 40 | 1016.7 |
| 20260503214003 | 28 | 196 | 4.8 | 17.7 | 0.00 | 0.00 | 0.00 | 39 | 1016.7 |
| 20260503213503 | 28 | 202 | 4.8 | 12.9 | 0.00 | 0.00 | 0.00 | 39 | 1016.8 |
| 20260503212503 | 28 | 203 | 8.0 | 19.3 | 0.00 | 0.00 | 0.00 | 37 | 1016.9 |
| 20260503212002 | 28 | 198 | 8.0 | 19.3 | 0.00 | 0.00 | 0.00 | 38 | 1017.0 |
| 20260503211503 | 28 | 200 | 8.0 | 19.3 | 0.00 | 0.00 | 0.00 | 38 | 1017.0 |
| 20260503210502 | 28 | 196 | 6.4 | 16.1 | 0.00 | 0.00 | 0.00 | 36 | 1017.2 |
| 20260503210003 | 28 | 195 | 6.4 | 16.1 | 0.00 | 0.00 | 0.00 | 35 | 1017.3 |
| 20260503205503 | 28 | 197 | 6.4 | 14.5 | 0.00 | 0.00 | 0.00 | 36 | 1017.4 |
| 20260503205002 | 28 | 192 | 6.4 | 14.5 | 0.00 | 0.00 | 0.00 | 38 | 1017.4 |
| 20260503204503 | 28 | 202 | 4.8 | 14.5 | 0.00 | 0.00 | 0.00 | 37 | 1017.5 |
| 20260503203503 | 28 | 215 | 6.4 | 20.9 | 0.00 | 0.00 | 0.00 | 36 | 1017.7 |
| 20260503203002 | 28 | 194 | 8.0 | 20.9 | 0.00 | 0.00 | 0.00 | 35 | 1017.8 |
| 20260503202002 | 28 | 203 | 4.8 | 16.1 | 0.00 | 0.00 | 0.00 | 37 | 1018.0 |
| 20260503201503 | 28 | 197 | 6.4 | 14.5 | 0.00 | 0.00 | 0.00 | 38 | 1018.1 |
| 20260503201003 | 28 | 205 | 4.8 | 17.7 | 0.00 | 0.00 | 0.00 | 37 | 1018.1 |
| 20260503200503 | 28 | 205 | 4.8 | 17.7 | 0.00 | 0.00 | 0.00 | 37 | 1018.3 |
| 20260503200003 | 28 | 191 | 6.4 | 16.1 | 0.00 | 0.00 | 0.00 | 38 | 1018.3 |
| 20260503195503 | 28 | 203 | 6.4 | 14.5 | 0.00 | 0.00 | 0.00 | 37 | 1018.4 |
| 20260503195003 | 28 | 206 | 6.4 | 17.7 | 0.00 | 0.00 | 0.00 | 37 | 1018.5 |
| 20260503194003 | 28 | 260 | 4.8 | 14.5 | 0.00 | 0.00 | 0.00 | 39 | 1018.7 |
| 20260503193003 | 28 | 258 | 4.8 | 17.7 | 0.00 | 0.00 | 0.00 | 39 | 1018.8 |
| 20260503192503 | 28 | 267 | 4.8 | 17.7 | 0.00 | 0.00 | 0.00 | 39 | 1018.9 |
| 20260503192003 | 28 | 234 | 4.8 | 12.9 | 0.00 | 0.00 | 0.00 | 41 | 1018.9 |
| 20260503191503 | 28 | 224 | 4.8 | 12.9 | 0.00 | 0.00 | 0.00 | 39 | 1019.0 |
| 20260503190502 | 28 | 217 | 4.8 | 14.5 | 0.00 | 0.00 | 0.00 | 39 | 1019.1 |
| 20260503190003 | 28 | 238 | 4.8 | 14.5 | 0.00 | 0.00 | 0.00 | 40 | 1019.2 |
| 20260503185503 | 28 | 240 | 6.4 | 16.1 | 0.00 | 0.00 | 0.00 | 41 | 1019.2 |
| 20260503185003 | 28 | 213 | 6.4 | 16.1 | 0.00 | 0.00 | 0.00 | 41 | 1019.3 |
| 20260503184003 | 28 | 239 | 3.2 | 12.9 | 0.00 | 0.00 | 0.00 | 43 | 1019.5 |
| 20260503183502 | 28 | 222 | 6.4 | 20.9 | 0.00 | 0.00 | 0.00 | 42 | 1019.6 |
| 20260503183003 | 28 | 214 | 4.8 | 20.9 | 0.00 | 0.00 | 0.00 | 42 | 1019.8 |
| 20260503182503 | 28 | 223 | 3.2 | 14.5 | 0.00 | 0.00 | 0.00 | 43 | 1019.9 |
| 20260503182004 | 28 | 208 | 3.2 | 12.9 | 0.00 | 0.00 | 0.00 | 43 | 1019.9 |
| 20260503181504 | 28 | 234 | 3.2 | 11.3 | 0.00 | 0.00 | 0.00 | 44 | 1020.0 |
| 20260503180003 | 27 | 247 | 4.8 | 11.3 | 0.00 | 0.00 | 0.00 | 43 | 1020.3 |
| 20260503175503 | 27 | 217 | 4.8 | 14.5 | 0.00 | 0.00 | 0.00 | 45 | 1020.3 |
| 20260503175002 | 27 | 218 | 4.8 | 14.5 | 0.00 | 0.00 | 0.00 | 45 | 1020.4 |
| 20260503174503 | 27 | 240 | 4.8 | 16.1 | 0.00 | 0.00 | 0.00 | 45 | 1020.4 |
| 20260503174003 | 27 | 216 | 4.8 | 16.1 | 0.00 | 0.00 | 0.00 | 45 | 1020.5 |
| 20260503173503 | 27 | 221 | 6.4 | 16.1 | 0.00 | 0.00 | 0.00 | 45 | 1020.5 |
| 20260503173003 | 26 | 234 | 4.8 | 14.5 | 0.00 | 0.00 | 0.00 | 45 | 1020.6 |
| 20260503172503 | 26 | 261 | 4.8 | 16.1 | 0.00 | 0.00 | 0.00 | 48 | 1020.8 |
| 20260503172003 | 26 | 280 | 6.4 | 16.1 | 0.00 | 0.00 | 0.00 | 48 | 1020.8 |
| 20260503171503 | 26 | 248 | 4.8 | 14.5 | 0.00 | 0.00 | 0.00 | 47 | 1020.8 |
| 20260503171004 | 26 | 229 | 4.8 | 14.5 | 0.00 | 0.00 | 0.00 | 47 | 1020.9 |
| 20260503170503 | 26 | 258 | 3.2 | 11.3 | 0.00 | 0.00 | 0.00 | 46 | 1021.1 |
| 20260503151003 | 23 | 253 | 4.8 | 14.5 | 0.00 | 0.00 | 0.00 | 55 | 1021.4 |
| 20260503150503 | 23 | 249 | 4.8 | 12.9 | 0.00 | 0.00 | 0.00 | 55 | 1021.4 |
| 20260503072503 | 15 | 230 | 0.0 | 1.6 | 0.00 | 0.00 | 0.00 | 70 | 1020.2 |
| 20260503071504 | 15 | 196 | 0.0 | 1.6 | 0.00 | 0.00 | 0.00 | 70 | 1020.3 |
| 20260503071003 | 15 | 200 | 0.0 | 1.6 | 0.00 | 0.00 | 0.00 | 70 | 1020.3 |
| 20260503070503 | 15 | 229 | 0.0 | 1.6 | 0.00 | 0.00 | 0.00 | 70 | 1020.4 |
| 20260503054503 | 16 | 210 | 0.0 | 1.6 | 0.00 | 0.00 | 0.00 | 67 | 1020.1 |
| 20260503054003 | 16 | 210 | 0.0 | 1.6 | 0.00 | 0.00 | 0.00 | 66 | 1020.1 |
| 20260503053503 | 16 | 210 | 0.0 | 1.6 | 0.00 | 0.00 | 0.00 | 66 | 1020.2 |
| 20260503052004 | 16 | 198 | 0.0 | 4.8 | 0.00 | 0.00 | 0.00 | 67 | 1020.0 |
| 20260503051503 | 16 | 191 | 0.0 | 4.8 | 0.00 | 0.00 | 0.00 | 67 | 1020.1 |
| 20260503051003 | 16 | 175 | 0.0 | 1.6 | 0.00 | 0.00 | 0.00 | 67 | 1020.0 |